[[{"header":{"parameterUnit":"m.s-1","parameterCategory":1,"la1":30.2992,"la2":30.254,"lo1":-89.0895,"lo2":-89.0443,"dy":0.0025,"dx":0.0025,"nx":19,"ny":19,"refTime":"2026-05-13T09:00:00:Z","depth":0,"parameterNumber":2,"parameterNumberName":"U-component_of_WINDS"},"data":[0,0,0,1.6447,1.6448,1.6485,1.6485,1.6537,1.6537,0,0,0,0,0,0,0,0,0,0,0,1.6439,1.644,1.6447,1.6448,1.6485,1.6485,1.6537,1.6537,0,0,0,0,0,0,0,0,0,0,0,1.6439,1.6439,1.644,1.6448,1.6485,1.6485,1.6537,1.6507,0,0,0,0,0,0,0,0,0,0,1.647,1.6466,1.6439,1.644,1.6449,1.6485,1.6485,1.6506,1.6509,1.6522,0,1.6535,0,1.6537,1.6541,1.6541,0,0,0,1.6446,1.6463,1.647,1.644,1.6449,1.6485,1.6468,1.6507,1.6511,1.6526,1.6535,1.6537,1.6538,1.6541,1.6542,1.6626,1.6626,0,0,1.6444,1.6447,1.6468,1.6473,1.6468,1.6467,1.6469,1.651,1.6519,1.6535,1.6538,1.6539,1.6542,1.6542,1.6625,1.6626,0,0,0,1.6439,1.6446,1.6452,1.6471,1.6477,1.6468,1.647,1.6517,1.6519,1.6539,1.6539,1.6542,1.6543,1.6625,1.6626,1.6654,0,0,0,1.6438,1.6443,1.6451,1.6454,1.6477,1.6498,1.6477,1.6516,1.6521,1.6539,1.6542,1.6543,1.6624,1.6625,1.6652,1.6667,0,0,0,1.6436,1.6443,1.6449,1.6454,1.647,1.6497,1.6501,1.6517,1.6521,1.6541,1.6543,1.6624,1.6625,1.665,1.6664,1.6691,0,0,0,1.6434,1.6473,1.645,1.6494,1.647,1.6515,1.6501,1.6534,1.6555,1.6542,1.6624,1.6626,1.665,1.6662,1.6689,1.6714,1.6724,0,0,1.6486,1.648,1.6506,1.6486,1.6536,1.6509,1.6563,1.6578,1.6577,1.6609,1.6612,1.6653,1.6664,1.669,1.6783,1.6791,0,0,0,1.6523,1.6542,1.6555,1.6575,1.6588,1.66,1.6607,1.6613,1.664,1.6594,1.6669,1.6676,1.6691,1.6703,1.671,1.6723,1.6631,1.6631,1.6631,1.6601,1.6598,1.6641,1.6642,1.6662,1.6669,1.6684,1.6693,1.6683,1.6701,1.6711,1.6768,1.6781,1.6787,1.68,1.6724,1.6724,1.6724,1.6724,1.6677,1.6703,1.6691,1.6728,1.6724,1.6755,1.6763,1.6755,1.6783,1.676,1.6773,1.6748,1.6796,1.6808,1.6726,1.6726,1.6725,1.6725,1.6725,1.6728,1.674,1.6747,1.6776,1.6799,1.6799,1.6827,1.6822,1.6818,1.6831,1.6841,1.684,1.684,1.6836,1.6836,1.6836,1.6837,1.6837,1.6837,1.6778,1.6785,1.681,1.6828,1.684,1.6856,1.6864,1.6876,1.6888,1.6883,1.6883,1.6872,1.6802,1.6784,1.684,1.6839,1.6839,1.6839,1.6838,1.6857,1.6839,1.6876,1.6889,1.691,1.6933,1.6927,1.6953,1.6962,1.6976,1.6962,1.6911,1.6905,1.6899,1.6884,1.6963,1.6963,1.6963,1.6963,1.69,1.6897,1.6934,1.6955,1.6975,1.6974,1.7016,1.7023,1.7027,1.7033,1.7021,1.7001,1.6996,1.6992,1.6985,1.6971,1.7069,1.707,1.707,1.6948,1.6947,1.6984,1.6988,1.7005,1.7018,1.7059,1.7083,1.7084,1.7074,1.7037,1.7033,1.7001,1.6991,1.698,1.6968,1.6943,0,0]},{"header":{"parameterUnit":"m.s-1","parameterCategory":1,"la1":30.2992,"la2":30.254,"lo1":-89.0895,"lo2":-89.0443,"dy":0.0025,"dx":0.0025,"nx":19,"ny":19,"refTime":"2026-05-13T09:00:00:Z","depth":0,"parameterNumber":3,"parameterNumberName":"V-component_of_WINDS"},"data":[0,0,0,-1.1918,-1.192,-1.1986,-1.1986,-1.207,-1.2071,0,0,0,0,0,0,0,0,0,0,0,-1.1898,-1.1899,-1.1918,-1.192,-1.1985,-1.1986,-1.207,-1.2071,0,0,0,0,0,0,0,0,0,0,0,-1.1898,-1.1899,-1.1899,-1.192,-1.1985,-1.1986,-1.2069,-1.202,0,0,0,0,0,0,0,0,0,0,-1.1956,-1.1937,-1.1898,-1.1899,-1.1921,-1.1985,-1.1986,-1.2018,-1.2023,-1.204,0,-1.2054,0,-1.2063,-1.2076,-1.2076,0,0,0,-1.1921,-1.1932,-1.1951,-1.1899,-1.1921,-1.1985,-1.1956,-1.2021,-1.2027,-1.2047,-1.2055,-1.2058,-1.2065,-1.2077,-1.2077,-1.2168,-1.2169,0,0,-1.1917,-1.191,-1.1946,-1.1954,-1.1943,-1.1954,-1.1958,-1.2025,-1.2033,-1.2055,-1.206,-1.2066,-1.2077,-1.2078,-1.2168,-1.2168,0,0,0,-1.1906,-1.1907,-1.1924,-1.1951,-1.1963,-1.1956,-1.1961,-1.203,-1.2036,-1.2061,-1.2067,-1.2078,-1.2079,-1.2167,-1.2168,-1.2179,0,0,0,-1.1904,-1.1901,-1.1922,-1.1918,-1.1961,-1.1997,-1.1965,-1.2031,-1.2039,-1.2067,-1.2078,-1.2079,-1.2167,-1.2168,-1.2178,-1.2186,0,0,0,-1.1894,-1.19,-1.1909,-1.1918,-1.1946,-1.1996,-1.2006,-1.2033,-1.2043,-1.2076,-1.208,-1.2167,-1.2168,-1.2177,-1.2184,-1.2208,0,0,0,-1.1882,-1.1918,-1.1909,-1.1952,-1.1945,-1.2002,-1.2006,-1.2049,-1.2079,-1.2078,-1.2167,-1.2168,-1.2177,-1.2183,-1.2207,-1.2226,-1.2233,0,0,-1.1924,-1.1923,-1.1949,-1.1943,-1.2,-1.1993,-1.2052,-1.2087,-1.2098,-1.2144,-1.2147,-1.2179,-1.2184,-1.2208,-1.2278,-1.2284,0,0,0,-1.196,-1.1979,-1.1996,-1.2024,-1.2051,-1.2075,-1.2102,-1.2115,-1.2155,-1.212,-1.2194,-1.2197,-1.2211,-1.2221,-1.2226,-1.2239,-1.2172,-1.2172,-1.2172,-1.2009,-1.202,-1.2064,-1.2083,-1.211,-1.2137,-1.2161,-1.2183,-1.2187,-1.2204,-1.2218,-1.2259,-1.227,-1.2274,-1.2287,-1.2229,-1.2229,-1.2229,-1.2229,-1.2072,-1.21,-1.2103,-1.2147,-1.2159,-1.2196,-1.2224,-1.2226,-1.2263,-1.2249,-1.2262,-1.2247,-1.228,-1.2292,-1.223,-1.223,-1.223,-1.223,-1.223,-1.2105,-1.212,-1.2135,-1.2177,-1.2208,-1.2226,-1.2261,-1.2271,-1.2281,-1.2293,-1.2309,-1.2309,-1.231,-1.23,-1.23,-1.23,-1.2301,-1.2301,-1.2301,-1.2133,-1.215,-1.2178,-1.221,-1.2229,-1.2256,-1.2284,-1.2303,-1.2328,-1.2332,-1.2332,-1.2334,-1.2281,-1.2267,-1.2303,-1.2303,-1.2302,-1.2302,-1.2302,-1.2192,-1.218,-1.2224,-1.2243,-1.2282,-1.2312,-1.2324,-1.2363,-1.2381,-1.2398,-1.2398,-1.2356,-1.2357,-1.2353,-1.2342,-1.2395,-1.2395,-1.2395,-1.2395,-1.222,-1.2221,-1.2267,-1.2298,-1.2328,-1.2344,-1.2393,-1.2415,-1.2437,-1.2449,-1.2443,-1.2429,-1.2424,-1.2427,-1.2422,-1.2411,-1.2481,-1.2481,-1.2481,-1.2257,-1.2261,-1.2301,-1.2321,-1.2352,-1.2379,-1.2426,-1.2461,-1.2483,-1.2485,-1.2459,-1.2455,-1.2432,-1.2424,-1.2425,-1.2416,-1.2398,0,0]}]]